BER8537 EGPH-EDDB

Flight info

Callsign BER8537
Flight time 1h 41m
Altitude 37000
Route TLA Y96 OTBUN DCT ERKIT N110 DOLAS L603 LAMSO DCT PETIK DCT BATEL T207 OGBER OGBER1R
Aircraft A320/M-SDE3FGHIRWY/LB1

Departure

Time 2026-05-07 19:37
Airport Edinburgh Airport (EGPH)

Arrival

Time 2026-05-07 21:18
Airport Berlin Brandenburg Airport (EDDB)
Time Latitude Longitude Altitude Speed Heading
2026-05-07 19:10 55.94847 -3.35875 108 ft 0 kts 210°
2026-05-07 19:26 55.94852 -3.35870 108 ft 4 kts 212°
2026-05-07 19:27 55.94872 -3.35841 106 ft 3 kts 218°
2026-05-07 19:27 55.94890 -3.35815 106 ft 4 kts 230°
2026-05-07 19:27 55.94902 -3.35776 107 ft 4 kts 268°
2026-05-07 19:27 55.94899 -3.35745 107 ft 1 kts 298°
2026-05-07 19:28 55.94897 -3.35740 107 ft 0 kts 298°
2026-05-07 19:31 55.94912 -3.35789 105 ft 8 kts 298°
2026-05-07 19:31 55.94952 -3.35861 107 ft 10 kts 339°
2026-05-07 19:31 55.95032 -3.35816 106 ft 15 kts 30°
2026-05-07 19:31 55.95112 -3.35842 106 ft 12 kts 303°
2026-05-07 19:32 55.95162 -3.35953 104 ft 12 kts 327°
2026-05-07 19:32 55.95240 -3.35948 101 ft 13 kts 38°
2026-05-07 19:32 55.95286 -3.35836 102 ft 10 kts 62°
2026-05-07 19:32 55.95317 -3.35735 102 ft 9 kts 62°
2026-05-07 19:33 55.95341 -3.35654 103 ft 6 kts 61°
2026-05-07 19:33 55.95356 -3.35609 104 ft 6 kts 58°
2026-05-07 19:33 55.95421 -3.35425 103 ft 22 kts 47°
2026-05-07 19:33 55.95493 -3.35442 102 ft 0 kts 326°
2026-05-07 19:35 55.95496 -3.35446 102 ft 0 kts 327°
2026-05-07 19:36 55.95530 -3.35484 101 ft 17 kts 327°
2026-05-07 19:36 55.95513 -3.35716 103 ft 26 kts 239°
2026-05-07 19:36 55.95357 -3.36193 98 ft 79 kts 239°
2026-05-07 19:36 55.94967 -3.37341 108 ft 135 kts 238°
2026-05-07 19:37 55.94430 -3.39019 242 ft 167 kts 238°
2026-05-07 19:37 55.93921 -3.40765 995 ft 157 kts 237°
2026-05-07 19:37 55.93361 -3.42479 1621 ft 160 kts 233°
2026-05-07 19:37 55.92784 -3.44176 2239 ft 159 kts 234°
2026-05-07 19:38 55.92096 -3.45735 2606 ft 167 kts 211°
2026-05-07 19:38 55.90935 -3.46225 2754 ft 189 kts 175°
2026-05-07 19:38 55.89681 -3.45166 2929 ft 216 kts 146°
2026-05-07 19:38 55.88521 -3.43238 3070 ft 241 kts 140°
2026-05-07 19:39 55.87303 -3.41053 3388 ft 254 kts 140°
2026-05-07 19:39 55.86051 -3.38803 3918 ft 257 kts 139°
2026-05-07 19:39 55.84779 -3.36530 4457 ft 261 kts 139°
2026-05-07 19:39 55.83925 -3.35017 4824 ft 262 kts 139°
2026-05-07 19:40 55.82177 -3.31961 5552 ft 265 kts 140°
2026-05-07 19:40 55.81299 -3.30440 5873 ft 268 kts 139°
2026-05-07 19:40 55.79941 -3.28088 6391 ft 270 kts 140°
2026-05-07 19:40 55.78605 -3.25781 6868 ft 272 kts 139°
2026-05-07 19:41 55.77190 -3.23479 7340 ft 272 kts 146°
2026-05-07 19:41 55.75708 -3.21432 7928 ft 275 kts 145°
2026-05-07 19:41 55.74217 -3.19281 8806 ft 278 kts 144°
2026-05-07 19:41 55.72722 -3.17087 9693 ft 281 kts 144°
2026-05-07 19:42 55.71199 -3.14843 10311 ft 293 kts 144°
2026-05-07 19:42 55.69565 -3.12452 10575 ft 316 kts 144°
2026-05-07 19:42 55.67803 -3.09887 10756 ft 339 kts 144°
2026-05-07 19:42 55.65931 -3.07161 11009 ft 356 kts 144°
2026-05-07 19:43 55.63999 -3.04346 11646 ft 362 kts 144°
2026-05-07 19:43 55.62047 -3.01503 12363 ft 366 kts 144°
2026-05-07 19:43 55.60064 -2.98622 13087 ft 370 kts 144°
2026-05-07 19:43 55.58068 -2.95734 13783 ft 373 kts 144°
2026-05-07 19:44 55.56048 -2.92820 14407 ft 376 kts 144°
2026-05-07 19:44 55.54018 -2.89896 15035 ft 379 kts 144°
2026-05-07 19:44 55.51966 -2.86947 15642 ft 381 kts 144°
2026-05-07 19:44 55.49901 -2.83983 16234 ft 384 kts 144°
2026-05-07 19:45 55.47820 -2.80994 16790 ft 387 kts 144°
2026-05-07 19:45 55.45724 -2.77992 17347 ft 390 kts 144°
2026-05-07 19:45 55.43608 -2.74973 17913 ft 393 kts 144°
2026-05-07 19:45 55.41476 -2.71934 18448 ft 396 kts 144°
2026-05-07 19:46 55.39355 -2.68913 18910 ft 398 kts 144°
2026-05-07 19:46 55.37197 -2.65840 19377 ft 401 kts 144°
2026-05-07 19:46 55.35023 -2.62746 19841 ft 404 kts 144°
2026-05-07 19:46 55.32838 -2.59642 20309 ft 406 kts 144°
2026-05-07 19:47 55.30636 -2.56516 20767 ft 409 kts 144°
2026-05-07 19:47 55.28410 -2.53362 21210 ft 411 kts 144°
2026-05-07 19:47 55.26178 -2.50201 21653 ft 414 kts 144°
2026-05-07 19:47 55.23929 -2.47026 22068 ft 416 kts 144°
2026-05-07 19:48 55.21660 -2.43834 22453 ft 420 kts 144°
2026-05-07 19:48 55.19374 -2.40624 22841 ft 423 kts 144°
2026-05-07 19:48 55.17070 -2.37389 23260 ft 426 kts 144°
2026-05-07 19:48 55.14754 -2.34141 23645 ft 428 kts 144°
2026-05-07 19:49 55.12426 -2.30881 23994 ft 430 kts 144°
2026-05-07 19:49 55.10085 -2.27605 24368 ft 432 kts 144°
2026-05-07 19:49 55.07742 -2.24332 24727 ft 433 kts 144°
2026-05-07 19:49 55.05384 -2.21042 25085 ft 434 kts 144°
2026-05-07 19:50 55.03022 -2.17752 25415 ft 435 kts 144°
2026-05-07 19:50 55.00657 -2.14464 25793 ft 435 kts 144°
2026-05-07 19:50 54.98287 -2.11178 26129 ft 436 kts 144°
2026-05-07 19:50 54.95906 -2.07882 26426 ft 438 kts 144°
2026-05-07 19:51 54.93514 -2.04576 26734 ft 439 kts 144°
2026-05-07 19:51 54.91119 -2.01269 27044 ft 441 kts 144°
2026-05-07 19:51 54.88714 -1.97951 27338 ft 442 kts 144°
2026-05-07 19:51 54.86304 -1.94629 27724 ft 442 kts 144°
2026-05-07 19:52 54.83903 -1.91322 28187 ft 439 kts 144°
2026-05-07 19:52 54.81548 -1.88086 28646 ft 437 kts 144°
2026-05-07 19:52 54.79168 -1.84821 29119 ft 435 kts 144°
2026-05-07 19:52 54.76800 -1.81577 29563 ft 433 kts 143°
2026-05-07 19:53 54.74650 -1.77922 29995 ft 436 kts 131°
2026-05-07 19:53 54.72850 -1.73702 30341 ft 436 kts 129°
2026-05-07 19:53 54.71064 -1.69446 30641 ft 437 kts 128°
2026-05-07 19:53 54.69283 -1.65188 30988 ft 436 kts 128°
2026-05-07 19:54 54.67509 -1.60942 31306 ft 435 kts 128°
2026-05-07 19:54 54.65742 -1.56718 31778 ft 431 kts 128°
2026-05-07 19:54 54.63990 -1.52545 32201 ft 428 kts 128°
2026-05-07 19:54 54.62240 -1.48397 32592 ft 426 kts 128°
2026-05-07 19:55 54.60494 -1.44272 32954 ft 425 kts 129°
2026-05-07 19:55 54.58752 -1.40165 33322 ft 424 kts 129°
2026-05-07 19:55 54.57014 -1.36074 33684 ft 422 kts 129°
2026-05-07 19:55 54.55280 -1.31994 34038 ft 421 kts 129°
2026-05-07 19:56 54.53548 -1.27929 34313 ft 421 kts 129°
2026-05-07 19:56 54.51813 -1.23861 34539 ft 422 kts 129°
2026-05-07 19:56 54.50078 -1.19792 34747 ft 423 kts 129°
2026-05-07 19:56 54.48330 -1.15700 34922 ft 425 kts 129°
2026-05-07 19:57 54.46569 -1.11593 35049 ft 428 kts 129°
2026-05-07 19:57 54.44794 -1.07461 35212 ft 430 kts 129°
2026-05-07 19:57 54.43016 -1.03327 35425 ft 430 kts 129°
2026-05-07 19:57 54.41238 -0.99192 35650 ft 431 kts 129°
2026-05-07 19:58 54.39455 -0.95054 35850 ft 431 kts 129°
2026-05-07 19:58 54.37666 -0.90911 36041 ft 432 kts 129°
2026-05-07 19:58 54.35873 -0.86769 36228 ft 433 kts 129°
2026-05-07 19:58 54.34073 -0.82620 36418 ft 434 kts 129°
2026-05-07 19:59 54.32265 -0.78462 36596 ft 435 kts 129°
2026-05-07 19:59 54.30454 -0.74301 36781 ft 436 kts 129°
2026-05-07 19:59 54.28637 -0.70132 36952 ft 437 kts 129°
2026-05-07 19:59 54.26815 -0.65958 37057 ft 439 kts 129°
2026-05-07 20:00 54.23154 -0.57599 37074 ft 445 kts 129°
2026-05-07 20:00 54.19429 -0.49111 37073 ft 447 kts 129°
2026-05-07 20:01 54.15691 -0.40626 37076 ft 447 kts 129°
2026-05-07 20:01 54.11950 -0.32152 37074 ft 447 kts 129°
2026-05-07 20:02 54.08202 -0.23686 37073 ft 447 kts 129°
2026-05-07 20:02 54.04450 -0.15249 37075 ft 447 kts 129°
2026-05-07 20:03 54.00686 -0.06814 37076 ft 447 kts 129°
2026-05-07 20:03 53.96915 0.01587 37061 ft 448 kts 129°
2026-05-07 20:04 53.93125 0.09995 37060 ft 448 kts 130°
2026-05-07 20:04 53.89334 0.18405 37066 ft 449 kts 129°
2026-05-07 20:05 53.85539 0.26798 37075 ft 449 kts 130°
2026-05-07 20:05 53.81760 0.35116 37077 ft 449 kts 130°
2026-05-07 20:06 53.77946 0.43493 37083 ft 449 kts 130°
2026-05-07 20:06 53.74128 0.51853 37091 ft 449 kts 130°
2026-05-07 20:07 53.70296 0.60194 37071 ft 450 kts 130°
2026-05-07 20:07 53.66448 0.68534 37082 ft 451 kts 130°
2026-05-07 20:08 53.62600 0.76881 37083 ft 451 kts 130°
2026-05-07 20:08 53.58743 0.85217 37093 ft 451 kts 130°
2026-05-07 20:09 53.54871 0.93534 37095 ft 452 kts 130°
2026-05-07 20:10 53.49056 1.05998 37095 ft 452 kts 130°
2026-05-07 20:10 53.45198 1.14234 37104 ft 452 kts 130°
2026-05-07 20:11 53.41312 1.22509 37108 ft 452 kts 130°
2026-05-07 20:11 53.37418 1.30765 37115 ft 452 kts 130°
2026-05-07 20:12 53.33514 1.39007 37113 ft 452 kts 130°
2026-05-07 20:12 53.29609 1.47237 37116 ft 452 kts 130°
2026-05-07 20:13 53.25696 1.55441 37110 ft 451 kts 130°
2026-05-07 20:13 53.21775 1.63629 37103 ft 452 kts 130°
2026-05-07 20:14 53.17845 1.71812 37104 ft 452 kts 130°
2026-05-07 20:14 53.13934 1.79945 37106 ft 453 kts 130°
2026-05-07 20:15 53.09994 1.88123 37113 ft 453 kts 130°
2026-05-07 20:15 53.06043 1.96295 37116 ft 453 kts 130°
2026-05-07 20:16 53.02080 2.04445 37106 ft 453 kts 130°
2026-05-07 20:16 52.98111 2.12580 37115 ft 453 kts 131°
2026-05-07 20:17 52.94138 2.20714 37103 ft 454 kts 131°
2026-05-07 20:17 52.90151 2.28829 37108 ft 454 kts 131°
2026-05-07 20:18 52.86153 2.36943 37114 ft 455 kts 131°
2026-05-07 20:18 52.82166 2.45079 37119 ft 456 kts 127°
2026-05-07 20:19 52.79266 2.54391 37104 ft 460 kts 109°
2026-05-07 20:19 52.77851 2.64634 37106 ft 461 kts 103°
2026-05-07 20:20 52.76509 2.74993 37117 ft 461 kts 104°
2026-05-07 20:20 52.75140 2.85349 37118 ft 462 kts 104°
2026-05-07 20:21 52.73771 2.95706 37118 ft 462 kts 104°
2026-05-07 20:21 52.72519 3.06112 37103 ft 463 kts 101°
2026-05-07 20:22 52.71590 3.16623 37106 ft 464 kts 99°
2026-05-07 20:22 52.70718 3.27170 37106 ft 464 kts 99°
2026-05-07 20:23 52.69764 3.37690 37112 ft 464 kts 100°
2026-05-07 20:23 52.68747 3.48207 37119 ft 465 kts 101°
2026-05-07 20:24 52.67729 3.58719 37114 ft 465 kts 100°
2026-05-07 20:24 52.66719 3.69168 37119 ft 465 kts 101°
2026-05-07 20:25 52.65694 3.79670 37118 ft 465 kts 101°
2026-05-07 20:25 52.64651 3.90176 37121 ft 465 kts 101°
2026-05-07 20:26 52.63603 4.00670 37108 ft 465 kts 101°
2026-05-07 20:26 52.62550 4.11171 37111 ft 465 kts 101°
2026-05-07 20:27 52.61593 4.21690 37111 ft 466 kts 94°
2026-05-07 20:27 52.61691 4.32368 37111 ft 467 kts 89°
2026-05-07 20:28 52.61885 4.43040 37104 ft 467 kts 89°
2026-05-07 20:28 52.62067 4.53713 37102 ft 467 kts 89°
2026-05-07 20:29 52.62236 4.64385 37102 ft 467 kts 90°
2026-05-07 20:29 52.62396 4.75065 37104 ft 467 kts 90°
2026-05-07 20:30 52.62553 4.85744 37104 ft 467 kts 90°
2026-05-07 20:30 52.62693 4.96426 37107 ft 467 kts 90°
2026-05-07 20:31 52.62819 5.07119 37105 ft 467 kts 90°
2026-05-07 20:31 52.62939 5.17811 37110 ft 467 kts 90°
2026-05-07 20:32 52.63056 5.28510 37107 ft 467 kts 90°
2026-05-07 20:32 52.63162 5.39127 37123 ft 467 kts 90°
2026-05-07 20:33 52.63257 5.49838 37114 ft 468 kts 90°
2026-05-07 20:33 52.63340 5.60547 37125 ft 468 kts 90°
2026-05-07 20:34 52.63416 5.71242 37117 ft 467 kts 90°
2026-05-07 20:34 52.63485 5.81934 37119 ft 467 kts 90°
2026-05-07 20:35 52.63536 5.92609 37111 ft 466 kts 91°
2026-05-07 20:35 52.63576 6.03279 37112 ft 466 kts 91°
2026-05-07 20:36 52.63607 6.12147 37107 ft 466 kts 91°
2026-05-07 20:36 52.63638 6.22812 37117 ft 466 kts 91°
2026-05-07 20:37 52.63652 6.33476 37117 ft 466 kts 91°
2026-05-07 20:37 52.63663 6.45858 37120 ft 466 kts 91°
2026-05-07 20:38 52.63664 6.54800 37111 ft 466 kts 91°
2026-05-07 20:38 52.63657 6.65457 37119 ft 466 kts 91°
2026-05-07 20:39 52.63636 6.76055 37122 ft 466 kts 91°
2026-05-07 20:39 52.63602 6.86713 37133 ft 466 kts 91°
2026-05-07 20:40 52.63561 6.97387 37137 ft 466 kts 91°
2026-05-07 20:40 52.63516 7.08049 37134 ft 466 kts 91°
2026-05-07 20:41 52.63465 7.18714 37143 ft 466 kts 91°
2026-05-07 20:41 52.63394 7.29386 37147 ft 466 kts 92°
2026-05-07 20:42 52.63311 7.40046 37145 ft 466 kts 92°
2026-05-07 20:42 52.63225 7.50702 37129 ft 466 kts 92°
2026-05-07 20:43 52.63133 7.61359 37127 ft 466 kts 92°
2026-05-07 20:43 52.63029 7.72015 37128 ft 465 kts 92°
2026-05-07 20:44 52.62939 7.82666 37128 ft 466 kts 91°
2026-05-07 20:44 52.63073 7.93244 37129 ft 466 kts 89°
2026-05-07 20:45 52.63309 8.03915 37125 ft 466 kts 89°
2026-05-07 20:45 52.63500 8.14578 37126 ft 466 kts 89°
2026-05-07 20:46 52.63650 8.25243 37126 ft 466 kts 89°
2026-05-07 20:46 52.63789 8.35907 37126 ft 466 kts 89°
2026-05-07 20:47 52.63919 8.46559 37123 ft 466 kts 90°
2026-05-07 20:47 52.64040 8.57222 37118 ft 466 kts 89°
2026-05-07 20:48 52.64156 8.67874 37121 ft 466 kts 89°
2026-05-07 20:48 52.64260 8.78544 37125 ft 466 kts 90°
2026-05-07 20:49 52.64349 8.89203 37123 ft 466 kts 90°
2026-05-07 20:49 52.64433 8.99863 37125 ft 466 kts 90°
2026-05-07 20:50 52.64511 9.10535 37129 ft 466 kts 90°
2026-05-07 20:50 52.64572 9.21144 37131 ft 466 kts 90°
2026-05-07 20:51 52.64628 9.31808 37138 ft 466 kts 90°
2026-05-07 20:51 52.64677 9.42464 37146 ft 466 kts 90°
2026-05-07 20:52 52.64725 9.53132 37152 ft 466 kts 90°
2026-05-07 20:52 52.64769 9.63798 37153 ft 466 kts 90°
2026-05-07 20:53 52.64792 9.74468 37153 ft 466 kts 90°
2026-05-07 20:53 52.64798 9.85144 37154 ft 466 kts 90°
2026-05-07 20:54 52.64785 9.95817 37154 ft 466 kts 91°
2026-05-07 20:54 52.64760 10.06487 37149 ft 466 kts 90°
2026-05-07 20:55 52.64733 10.17145 36795 ft 465 kts 90°
2026-05-07 20:55 52.64718 10.22453 36534 ft 464 kts 90°
2026-05-07 20:55 52.64702 10.27759 36294 ft 463 kts 90°
2026-05-07 20:55 52.64686 10.33053 36021 ft 462 kts 90°
2026-05-07 20:56 52.64668 10.38260 35777 ft 461 kts 90°
2026-05-07 20:56 52.64646 10.43541 35531 ft 460 kts 90°
2026-05-07 20:56 52.64618 10.48811 35288 ft 460 kts 90°
2026-05-07 20:56 52.64590 10.54065 35044 ft 459 kts 90°
2026-05-07 20:57 52.64559 10.59322 34802 ft 459 kts 90°
2026-05-07 20:57 52.64524 10.64568 34573 ft 458 kts 90°
2026-05-07 20:57 52.64486 10.69805 34218 ft 457 kts 90°
2026-05-07 20:57 52.64448 10.75033 33788 ft 456 kts 90°
2026-05-07 20:58 52.64411 10.80260 33340 ft 457 kts 90°
2026-05-07 20:58 52.64372 10.85467 32904 ft 451 kts 90°
2026-05-07 20:58 52.64328 10.90579 32475 ft 443 kts 90°
2026-05-07 20:58 52.64283 10.95599 32051 ft 435 kts 90°
2026-05-07 20:59 52.64238 11.00547 31637 ft 428 kts 90°
2026-05-07 20:59 52.64193 11.05414 31227 ft 422 kts 90°
2026-05-07 20:59 52.64149 11.10202 30830 ft 416 kts 90°
2026-05-07 20:59 52.64103 11.14928 30430 ft 410 kts 90°
2026-05-07 21:00 52.64054 11.19580 30011 ft 404 kts 90°
2026-05-07 21:00 52.64002 11.24123 29551 ft 399 kts 90°
2026-05-07 21:00 52.63948 11.28662 29097 ft 394 kts 90°
2026-05-07 21:00 52.63893 11.33142 28648 ft 389 kts 90°
2026-05-07 21:01 52.63836 11.37569 28210 ft 385 kts 90°
2026-05-07 21:01 52.63777 11.41947 27772 ft 381 kts 90°
2026-05-07 21:01 52.63718 11.46297 27214 ft 380 kts 90°
2026-05-07 21:01 52.63660 11.50657 26608 ft 380 kts 91°
2026-05-07 21:02 52.63602 11.54955 26015 ft 372 kts 91°
2026-05-07 21:02 52.63544 11.59187 25438 ft 368 kts 91°
2026-05-07 21:02 52.63485 11.63379 24865 ft 364 kts 91°
2026-05-07 21:02 52.63423 11.67520 24328 ft 361 kts 91°
2026-05-07 21:03 52.63332 11.71644 23777 ft 366 kts 96°
2026-05-07 21:03 52.62647 11.75808 23149 ft 390 kts 114°
2026-05-07 21:03 52.61477 11.79953 22524 ft 409 kts 115°
2026-05-07 21:03 52.60222 11.84260 21891 ft 425 kts 116°
2026-05-07 21:04 52.58912 11.88704 21287 ft 437 kts 116°
2026-05-07 21:04 52.57611 11.93122 20689 ft 419 kts 116°
2026-05-07 21:04 52.56372 11.97329 20110 ft 400 kts 116°
2026-05-07 21:04 52.55177 12.01398 19543 ft 392 kts 116°
2026-05-07 21:05 52.54014 12.05363 18991 ft 391 kts 116°
2026-05-07 21:05 52.52835 12.09378 18446 ft 390 kts 116°
2026-05-07 21:05 52.51659 12.13383 17826 ft 389 kts 115°
2026-05-07 21:05 52.50486 12.17370 17212 ft 388 kts 116°
2026-05-07 21:06 52.49314 12.21348 16600 ft 386 kts 116°
2026-05-07 21:06 52.48144 12.25310 16012 ft 385 kts 116°
2026-05-07 21:06 52.46974 12.29256 15433 ft 384 kts 116°
2026-05-07 21:06 52.45807 12.33184 14857 ft 382 kts 116°
2026-05-07 21:07 52.44647 12.37084 14307 ft 381 kts 116°
2026-05-07 21:07 52.43489 12.40977 13727 ft 379 kts 116°
2026-05-07 21:07 52.42337 12.44841 13109 ft 376 kts 116°
2026-05-07 21:07 52.41187 12.48685 12507 ft 374 kts 116°
2026-05-07 21:08 52.40046 12.52487 11905 ft 371 kts 115°
2026-05-07 21:08 52.38913 12.56259 11335 ft 368 kts 115°
2026-05-07 21:08 52.37790 12.60002 10759 ft 364 kts 115°
2026-05-07 21:08 52.36678 12.63708 10181 ft 361 kts 115°
2026-05-07 21:09 52.35580 12.67367 9600 ft 357 kts 115°
2026-05-07 21:09 52.34491 12.70992 9000 ft 353 kts 115°
2026-05-07 21:09 52.33427 12.74527 8398 ft 349 kts 115°
2026-05-07 21:09 52.32360 12.78064 7809 ft 345 kts 115°
2026-05-07 21:10 52.31299 12.81561 7234 ft 341 kts 115°
2026-05-07 21:10 52.30248 12.85011 6663 ft 337 kts 115°
2026-05-07 21:10 52.29225 12.88364 6071 ft 321 kts 115°
2026-05-07 21:10 52.28257 12.91539 5468 ft 305 kts 115°
2026-05-07 21:11 52.27333 12.94566 4882 ft 292 kts 115°
2026-05-07 21:11 52.26447 12.97472 4288 ft 281 kts 115°
2026-05-07 21:11 52.25036 13.03006 3417 ft 250 kts 98°
2026-05-07 21:12 52.24962 13.05744 3086 ft 234 kts 83°
2026-05-07 21:12 52.25294 13.08207 2987 ft 211 kts 71°
2026-05-07 21:12 52.25772 13.10328 2987 ft 189 kts 68°
2026-05-07 21:12 52.26233 13.12238 2991 ft 175 kts 68°
2026-05-07 21:13 52.26674 13.14060 2997 ft 171 kts 68°
2026-05-07 21:13 52.27136 13.15972 3013 ft 189 kts 68°
2026-05-07 21:13 52.27623 13.17987 3030 ft 193 kts 68°
2026-05-07 21:13 52.28116 13.20031 3009 ft 194 kts 69°
2026-05-07 21:14 52.28610 13.22080 3001 ft 194 kts 68°
2026-05-07 21:14 52.29105 13.24134 3000 ft 194 kts 69°
2026-05-07 21:14 52.29584 13.26124 2868 ft 183 kts 69°
2026-05-07 21:14 52.30036 13.28005 2670 ft 174 kts 68°
2026-05-07 21:15 52.30470 13.29811 2441 ft 168 kts 68°
2026-05-07 21:15 52.30887 13.31552 2216 ft 164 kts 68°
2026-05-07 21:15 52.31285 13.33213 2008 ft 149 kts 68°
2026-05-07 21:15 52.31653 13.34746 1798 ft 142 kts 68°
2026-05-07 21:16 52.32012 13.36249 1599 ft 139 kts 68°
2026-05-07 21:16 52.32357 13.37691 1414 ft 138 kts 67°
2026-05-07 21:16 52.32706 13.39152 1226 ft 138 kts 68°
2026-05-07 21:16 52.33051 13.40613 1051 ft 138 kts 67°
2026-05-07 21:17 52.33403 13.42098 848 ft 141 kts 66°
2026-05-07 21:17 52.33782 13.43592 662 ft 144 kts 66°
2026-05-07 21:17 52.34149 13.45121 455 ft 145 kts 69°
2026-05-07 21:17 52.34503 13.46679 245 ft 147 kts 68°
2026-05-07 21:18 52.34868 13.48197 156 ft 134 kts 68°
2026-05-07 21:18 52.35163 13.49372 154 ft 88 kts 70°
2026-05-07 21:18 52.35320 13.50101 154 ft 58 kts 70°
2026-05-07 21:18 52.35453 13.50500 154 ft 31 kts 49°
2026-05-07 21:19 52.35612 13.50720 154 ft 29 kts 43°
2026-05-07 21:19 52.35774 13.50831 154 ft 24 kts 324°
2026-05-07 21:19 52.35923 13.50733 155 ft 24 kts 342°
2026-05-07 21:19 52.36083 13.50635 155 ft 25 kts 338°
2026-05-07 21:20 52.36220 13.50546 155 ft 20 kts 337°
2026-05-07 21:20 52.36332 13.50489 155 ft 6 kts 20°
2026-05-07 21:20 52.36328 13.50502 155 ft 1 kts 152°
2026-05-07 21:20 52.36288 13.50559 154 ft 8 kts 58°
2026-05-07 21:21 52.36312 13.50600 155 ft 4 kts 56°
2026-05-07 21:21 52.36322 13.50640 155 ft 3 kts 68°
2026-05-07 21:21 52.36323 13.50643 155 ft 0 kts 68°